User: anonymous   Login
Location: Fond Mahaut
(18.0707°N, 63.0465°W)
Time: 06:40:27
(UTC+00:00)
Language:

Okean-O - Orbit

View from above orbital plane
View from above orbital plane
View from above satellite
View from above satellite

Ground track
Ground track

The orbit data is extracted from the following two-line orbital elements,

1 25860U 99039A   20049.91228122 +.00000032 +00000-0 +12174-4 0  9997
2 25860 098.2221 066.7755 0000793 104.8017 255.3279 14.76646565107879
Epoch (UTC): 18 February 2020 21:53:41
Eccentricity: 0.0000793
inclination: 98.2221°
perigee height: 639 km
apogee height: 640 km
right ascension of ascending node: 66.7755°
argument of perigee: 104.8017°
revolutions per day: 14.76646565
mean anomaly at epoch: 255.3279°
orbit number at epoch: 10787

The dashed part of the orbit path shows where the satellite is in the earth's shadow,  

DLR